Dewpoint
27 24 21 22 21 21 21 20 19 20 21 20 21 21 20 20 20 18 19 19 23 24 26 28 29 30 31 31 31 31 31 31 35 40 44 47 50 52 53 54 53 54 53 51
27 24 24 24 23 22 21 21 19 20 20 21 20 20 19 19 19 20 20 23 24 25 27 29 30 31 31 31 30 31 32 32 33 35 42 44 45 47 50 51 51 51 51 50
24 25 27 25 22 21 21 21 20 19 21 18 19 19 20 22 21 23 25 25 27 28 28 29 30 30 31 31 29 30 31 32 34 36 38 41 42 41 40 44 46 49 49 49
26 27 25 25 23 23 20 21 21 20 17 16 22 19 21 22 22 24 25 27 27 28 29 29 29 30 31 31 31 30 30 31 32 34 36 37 38 37 37 38 42 45 46 47
25 23 22 22 22 22 21 22 20 18 17 19 21 21 21 22 21 24 26 28 28 27 27 28 28 28 31 31 31 30 30 31 31 31 32 33 34 34 36 36 35 37 42 44
24 22 22 22 20 22 23 19 20 19 18 20 22 20 19 17 18 23 26 28 28 27 26 26 27 27 27 29 27 26 27 29 31 31 30 30 30 31 31 32 33 35 38 39
24 22 23 22 21 22 22 20 20 19 20 19 24 22 21 20 18 22 26 27 28 27 25 24 25 25 26 26 27 25 24 24 27 29 30 30 30 30 30 30 31 31 32 35
23 21 23 22 22 23 24 23 20 17 13 17 24 21 22 23 25 27 28 28 27 27 27 25 24 24 24 23 24 24 24 23 24 25 27 29 30 30 30 30 30 30 30 31
21 17 24 24 24 23 23 22 24 22 23 22 22 21 22 25 27 27 26 25 26 26 27 25 23 23 24 23 21 21 20 20 21 24 25 25 25 24 25 28 30 30 30 29
30 27 28 27 27 25 23 23 24 24 22 20 19 18 17 25 26 27 24 23 23 22 22 24 22 19 19 19 20 20 20 19 19 22 24 22 23 23 22 22 24 27 29 30
31 32 27 27 26 23 22 23 23 24 23 20 16 16 27 28 28 25 23 23 21 19 17 21 23 16 14 15 14 15 17 18 17 20 22 22 22 22 20 19 21 24 26 27
31 30 27 26 26 26 25 25 26 24 21 22 22 21 30 29 26 24 23 23 22 22 14 13 19 17 12 12 12 11 13 16 16 16 19 19 21 22 20 17 18 22 24 25
34 30 23 17 14 32 30 30 28 27 32 26 23 22 29 27 26 25 31 30 27 23 13 15 16 19 16 13 11 10 10 12 16 14 14 17 18 19 19 16 17 19 23 23
34 29 24 14 12 21 22 23 24 26 24 21 20 20 21 27 31 32 33 31 25 21 12 10 9 10 13 12 10 9 9 11 13 15 15 15 16 17 18 19 19 18 18 23
30 26 27 26 26 25 23 22 22 22 22 20 18 17 19 21 22 18 18 17 19 19 14 9 7 9 11 13 15 13 12 13 15 16 18 18 19 20 20 20 20 19 18 22
26 21 22 20 22 21 19 19 18 17 17 18 18 18 19 17 14 14 14 12 10 6 6 9 7 8 10 12 15 15 14 15 16 15 16 17 19 19 19 20 19 17 17 17
22 21 19 15 15 15 11 12 12 11 12 12 11 14 18 16 12 7 6 10 11 10 8 7 9 7 10 13 16 17 18 17 17 17 18 19 20 19 19 18 17 15 14 13
21 19 19 14 14 7 2 7 9 8 8 10 17 20 15 6 4 5 5 6 8 9 6 7 10 11 14 17 18 17 17 17 18 18 19 20 20 19 19 18 17 15 14 12
21 20 16 12 9 6 7 7 5 5 5 9 9 19 5 6 6 4 4 8 7 7 9 11 13 17 19 19 17 16 16 16 16 16 17 16 16 16 16 15 15 15 14 13
10 13 13 12 10 3 0 6 8 9 5 12 16 9 10 12 7 6 9 10 10 10 11 14 17 21 18 17 16 14 14 14 13 13 15 15 15 14 13 13 14 14 14 14
7 9 10 11 10 10 11 11 9 5 4 14 10 11 12 10 10 11 12 11 11 12 14 19 18 17 16 14 12 11 11 10 11 11 10 8 7 8 8 7 8 8 8 9
2 2 6 10 10 6 8 10 6 9 16 14 12 12 12 12 11 11 10 10 10 15 17 17 16 15 13 11 10 8 7 7 7 6 5 3 2 2 2 2 2 3 4 4
4 2 -0 3 5 9 11 7 12 11 11 13 15 15 13 12 11 11 10 11 17 16 15 14 11 10 10 9 8 6 5 5 4 2 0 -0 -0 -0 -0 -0 -0 -0 0 1
8 7 5 7 7 7 7 9 10 10 11 12 13 12 13 13 12 12 15 16 16 14 11 10 8 7 6 6 5 4 3 3 1 -0 -1 -1 -1 -1 -1 -1 -1 -1 -1 -1
10 10 8 9 10 10 10 11 12 12 12 12 13 13 13 13 13 15 15 13 12 9 8 7 5 4 4 3 3 2 2 1 -0 -1 -1 -1 -2 -2 -2 -2 -2 -1 1 2
15 12 9 9 9 8 8 9 11 11 12 12 12 14 16 15 15 12 11 9 6 6 5 3 3 2 1 1 0 0 -0 -1 -1 -1 -2 -3 -3 -3 -3 -3 -3 -2 0 2
Wind_Speed
7 6 11 15 19 19 9 14 19 17 16 22 19 19 17 22 26 29 22 12 25 25 22 23 21 20 21 24 23 22 22 20 7 4 3 3 4 3 5 4 6 9 14 16
4 11 20 16 15 15 16 16 18 15 13 14 17 19 25 27 23 22 8 23 21 21 22 20 18 19 20 20 22 24 23 23 18 10 6 5 4 2 1 6 4 4 9 14
16 11 13 8 9 16 16 17 17 17 13 12 12 13 16 18 15 22 25 24 24 20 16 16 18 20 20 24 23 23 23 22 21 19 11 6 6 6 6 5 2 1 4 6
14 7 7 10 15 12 15 9 7 6 7 6 12 16 5 21 9 22 20 19 17 15 15 15 18 20 20 20 19 22 22 22 19 21 18 13 9 7 6 2 2 1 1 5
2 3 2 6 8 1 3 7 7 8 11 14 12 12 3 13 16 16 16 16 15 14 14 16 16 16 17 18 20 18 19 21 22 21 18 15 13 12 11 9 8 8 1 4
14 5 4 6 1 5 4 7 12 16 10 7 8 7 3 5 12 11 13 16 14 14 15 14 14 16 19 18 19 21 20 21 21 21 20 18 13 12 12 13 11 10 3 6
3 10 6 3 3 4 1 3 7 4 8 12 12 10 11 5 19 20 21 18 15 15 14 15 16 16 17 18 18 17 19 21 19 17 16 18 16 18 15 15 13 13 12 8
5 8 9 6 3 1 5 4 6 8 9 19 16 13 7 6 20 23 21 19 15 13 12 12 13 13 13 13 14 15 15 17 18 17 16 12 14 16 15 17 15 15 14 14
4 3 8 4 1 3 2 4 2 9 11 11 10 11 18 8 17 18 18 17 14 10 9 9 10 10 9 9 11 12 14 15 16 15 14 16 19 18 16 17 15 15 15 15
3 7 5 2 4 4 4 1 4 3 6 10 7 10 14 12 14 17 16 13 9 7 7 7 8 7 6 7 8 9 10 11 11 11 13 15 16 14 13 16 17 16 16 17
4 1 4 8 4 3 4 7 7 9 12 10 21 13 7 9 12 14 11 7 4 3 2 2 5 5 5 6 7 8 8 10 12 13 11 11 12 12 16 17 15 15 14 15
2 2 9 12 17 17 16 19 14 11 13 16 22 26 8 12 11 10 8 8 7 5 2 3 4 6 6 6 7 6 6 8 8 8 9 11 11 14 15 16 15 15 15 16
3 4 5 15 6 5 3 3 7 13 4 16 20 11 7 10 8 8 10 10 8 5 5 4 3 3 4 5 8 9 9 7 6 8 9 9 8 9 9 12 14 16 16 16
3 4 8 18 16 15 13 21 20 8 12 21 26 29 33 14 9 13 14 12 10 7 5 2 3 5 6 6 8 9 11 10 10 10 11 12 11 11 11 10 10 12 14 15
4 11 11 20 20 21 18 22 24 19 24 26 36 34 35 31 22 4 1 7 5 5 9 9 3 3 7 7 5 6 9 11 9 11 13 14 13 12 13 15 14 14 14 14
7 8 6 19 10 15 24 31 24 26 29 31 31 34 26 10 7 3 4 4 3 5 7 5 5 5 8 8 9 10 11 12 9 13 18 20 21 19 16 15 15 15 15 16
3 4 3 16 5 8 16 31 27 24 26 26 29 21 5 4 3 4 4 5 7 8 7 7 7 8 8 5 4 7 10 8 9 14 18 20 19 20 21 21 20 20 19 17
8 11 6 11 4 13 16 6 9 16 20 17 10 4 6 4 2 4 6 12 9 5 4 6 7 10 10 2 4 7 8 10 14 17 19 19 18 20 19 18 20 22 20 23
22 15 8 7 15 15 21 16 18 14 22 5 11 11 6 5 6 9 7 6 2 5 7 7 6 6 6 7 6 8 9 11 14 16 18 17 17 20 22 24 26 25 24 25
15 20 14 10 8 12 1 7 5 2 22 8 8 10 2 3 7 14 6 9 8 7 8 8 7 4 6 8 9 10 12 14 15 16 15 16 17 20 24 26 27 26 25 28
7 6 24 23 16 11 2 3 6 10 20 5 10 6 7 10 13 18 13 11 10 9 5 5 7 7 8 10 11 12 13 14 13 14 17 19 20 21 23 26 25 27 28 29
11 8 10 9 12 17 3 5 9 7 4 9 11 14 15 16 18 13 13 12 10 0 4 7 8 7 7 9 11 14 15 15 15 17 18 20 20 20 21 24 25 25 26 28
10 17 8 14 8 5 10 12 14 10 13 15 14 18 18 20 14 14 13 9 3 4 4 5 7 12 9 9 9 16 18 18 20 20 20 20 20 19 20 22 24 23 22 23
10 19 17 14 18 24 28 23 20 21 21 17 14 16 14 15 15 14 6 3 0 3 3 5 9 12 14 10 11 12 17 17 19 21 21 21 21 22 21 19 20 21 22 23
20 8 19 25 23 26 26 23 24 25 26 22 20 18 18 14 14 8 6 4 2 1 3 5 9 12 13 13 15 14 16 17 20 20 21 22 20 22 23 22 21 22 23 25
27 34 30 28 20 24 23 21 16 17 17 13 14 14 10 10 10 5 6 3 1 2 5 8 9 12 14 14 15 16 15 16 18 21 21 21 23 22 22 23 24 26 33 36
Wind_Direction
194 205 209 233 236 247 307 297 296 300 305 291 299 308 300 283 283 291 286 291 95 83 71 53 43 30 27 18 24 18 17 11 42 59 177 218 232 219 209 203 206 193 184 191
149 227 237 258 286 293 286 293 285 283 283 320 300 296 289 282 274 266 282 74 77 69 56 50 45 36 33 30 28 25 22 19 22 28 35 60 44 29 202 190 192 213 189 187
224 247 308 268 262 272 269 269 282 291 331 297 284 271 264 270 257 80 76 76 65 62 58 47 40 38 33 28 30 29 24 20 17 9 24 40 48 44 16 21 25 293 150 178
234 282 275 261 260 261 274 290 289 292 308 263 30 301 259 272 283 96 87 76 70 70 65 52 39 38 37 35 33 34 26 22 22 23 28 26 40 44 10 309 131 79 254 240
203 144 161 233 239 131 250 351 313 286 264 283 259 254 276 244 132 124 102 98 93 80 71 60 54 48 37 34 34 42 42 31 16 21 29 31 36 29 15 19 31 357 318 264
245 144 213 220 243 226 18 294 268 250 248 259 243 232 13 57 155 124 111 101 94 82 70 66 58 48 41 36 35 28 31 36 26 22 21 21 22 39 36 16 8 337 278 250
190 205 195 203 224 173 112 292 323 261 187 243 28 325 251 227 166 164 137 112 92 78 67 60 52 48 42 33 33 37 31 30 28 23 21 22 15 28 31 25 10 1 352 336
253 290 144 167 214 89 216 241 237 275 274 292 306 261 240 78 94 97 101 101 89 77 71 65 57 53 52 44 33 38 39 33 24 18 19 16 24 32 25 25 13 6 356 345
323 249 113 158 121 134 27 206 302 270 294 281 253 264 285 190 101 102 101 87 80 73 70 70 72 63 53 50 54 43 38 38 32 22 11 16 22 25 19 25 20 6 356 347
40 279 285 104 116 214 223 40 272 186 252 252 249 294 274 28 140 110 93 90 81 58 51 64 69 64 70 60 62 56 61 42 33 31 29 25 20 13 13 26 16 6 355 353
68 217 224 322 201 223 262 261 229 256 240 260 273 269 39 82 106 110 103 98 108 104 80 81 108 91 68 58 55 52 54 49 24 13 19 34 25 12 15 13 2 360 352 348
134 269 267 254 287 284 274 271 262 242 260 258 261 267 63 110 111 132 164 183 175 163 20 23 61 76 53 26 38 46 37 54 41 11 357 20 19 11 9 2 351 346 347 344
137 200 274 306 285 67 128 51 322 311 305 264 270 265 135 141 177 194 231 232 217 182 181 189 136 101 71 34 15 11 11 23 21 8 357 356 3 357 342 344 338 335 333 332
44 228 223 241 258 326 305 301 289 260 275 281 272 283 288 275 244 253 247 241 211 187 207 262 314 18 5 23 8 358 356 358 356 350 343 333 334 327 319 312 303 310 319 313
193 249 231 256 272 287 294 282 279 276 267 264 273 277 276 286 301 315 83 92 128 211 223 224 205 309 306 306 308 323 327 332 335 332 329 321 313 305 302 301 297 293 302 295
206 252 269 274 270 274 275 271 270 271 269 267 268 270 281 357 42 70 56 38 340 1 341 301 189 238 261 266 274 278 289 296 304 313 315 317 318 320 313 298 294 298 296 297
253 210 210 260 274 302 278 256 254 257 258 261 269 278 335 344 59 59 33 310 288 287 317 319 270 241 245 249 296 296 291 294 293 290 293 294 294 294 294 296 299 300 300 298
220 214 226 265 315 257 261 251 312 294 289 293 286 207 190 164 1 333 292 270 262 279 315 311 319 314 302 314 345 331 328 318 302 293 288 286 288 288 287 286 283 289 295 297
224 219 231 230 222 274 296 289 287 296 289 326 298 204 169 18 315 283 272 58 3 293 275 279 292 338 25 13 9 350 325 306 300 297 298 301 305 303 300 295 291 289 289 287
212 217 212 208 237 250 263 85 139 94 279 228 224 158 128 303 285 283 326 328 306 297 290 293 312 17 30 24 14 344 321 316 306 307 314 316 313 306 301 298 297 296 292 288
167 200 224 237 247 255 12 112 102 253 274 163 157 182 244 261 256 270 269 273 268 263 288 54 34 25 23 16 3 330 315 309 317 326 314 309 309 307 302 299 297 295 292 289
182 203 220 220 243 271 178 134 212 232 172 187 208 241 257 286 288 272 267 266 269 128 55 32 355 357 360 2 345 321 314 318 319 312 310 307 304 299 297 294 293 291 290 287
235 218 232 214 211 213 199 221 220 250 272 276 253 259 265 276 267 277 265 262 104 85 40 32 350 329 336 342 341 320 318 321 318 314 308 305 300 297 295 294 294 292 289 286
247 241 244 254 252 256 265 263 266 272 275 266 266 278 277 269 267 258 240 224 242 21 23 11 338 324 317 323 324 315 313 315 312 308 307 306 305 302 297 291 290 290 290 287
235 239 246 248 254 257 261 261 265 269 269 271 269 263 262 252 248 218 187 193 214 339 355 352 325 314 310 318 315 312 310 311 308 307 306 305 304 304 301 293 291 288 283 282
238 241 242 246 245 249 252 252 248 251 251 249 264 269 236 219 213 180 197 157 171 307 323 316 312 310 308 311 307 305 306 305 303 305 308 308 305 301 299 298 295 288 291 294